Temperature
-2 -2 -2 -2 -3 -3 -3 -3 -4 -4 -4 -4 -5 -5 -5 -5 -5 -5 -5 -5 -5 -5 -5 -4 -4 -3 -3 -2 -1 -1 -0 0 1 2 2 3 3 3 4 4 4 5 5 5
-3 -2 -2 -2 -3 -3 -3 -3 -4 -4 -4 -5 -5 -5 -5 -5 -6 -6 -6 -6 -6 -5 -5 -5 -4 -4 -3 -3 -2 -2 -1 -0 0 1 1 2 2 3 3 3 4 4 4 4
-3 -2 -3 -4 -5 -5 -5 -5 -5 -5 -6 -5 -5 -5 -6 -6 -6 -7 -7 -7 -6 -6 -6 -5 -5 -4 -4 -4 -3 -2 -2 -1 -1 -0 1 1 2 2 2 3 3 3 3 4
-3 -3 -5 -5 -4 -5 -5 -6 -6 -6 -6 -6 -6 -6 -6 -6 -7 -7 -7 -7 -7 -6 -6 -6 -5 -5 -5 -4 -4 -3 -3 -2 -1 -1 -0 0 1 1 2 2 2 3 3 3
-4 -4 -4 -5 -5 -6 -6 -6 -7 -7 -7 -6 -6 -6 -6 -6 -7 -7 -8 -7 -7 -7 -6 -6 -6 -6 -5 -5 -4 -4 -3 -3 -2 -2 -1 -0 0 1 1 1 2 2 2 2
-5 -5 -5 -6 -6 -5 -6 -7 -7 -7 -7 -7 -7 -7 -7 -7 -8 -8 -8 -7 -7 -7 -7 -6 -6 -6 -6 -5 -5 -4 -4 -3 -3 -2 -2 -1 -1 -0 0 0 1 1 1 1
-6 -6 -6 -7 -6 -6 -7 -7 -7 -7 -7 -7 -8 -8 -8 -8 -8 -8 -8 -8 -7 -7 -7 -7 -6 -6 -6 -6 -6 -5 -5 -4 -3 -3 -2 -2 -1 -1 -1 -0 -0 0 1 1
-6 -6 -6 -7 -7 -7 -8 -7 -7 -7 -8 -8 -8 -8 -8 -9 -9 -8 -8 -8 -8 -8 -7 -7 -7 -7 -7 -6 -6 -6 -5 -5 -4 -3 -3 -2 -2 -2 -1 -1 -1 -1 -0 -0
-7 -7 -6 -6 -6 -6 -7 -7 -8 -8 -8 -8 -9 -9 -9 -9 -9 -9 -9 -8 -8 -8 -8 -7 -7 -7 -7 -7 -6 -6 -6 -5 -5 -4 -4 -3 -3 -2 -2 -2 -2 -2 -1 -1
-7 -7 -6 -6 -6 -7 -7 -8 -8 -8 -9 -9 -9 -9 -9 -9 -9 -9 -9 -9 -8 -8 -8 -8 -8 -8 -8 -7 -7 -7 -6 -6 -5 -5 -4 -4 -4 -3 -3 -3 -3 -2 -2 -2
-8 -7 -6 -6 -7 -7 -8 -8 -8 -9 -9 -9 -10 -10 -10 -10 -10 -9 -9 -9 -9 -9 -9 -8 -8 -8 -8 -8 -7 -7 -7 -6 -6 -5 -5 -5 -4 -4 -4 -4 -3 -3 -3 -2
-8 -7 -8 -7 -7 -8 -8 -8 -9 -9 -9 -10 -10 -10 -10 -10 -10 -10 -10 -9 -9 -9 -9 -9 -8 -8 -8 -8 -8 -7 -7 -7 -7 -6 -6 -6 -5 -5 -5 -4 -4 -4 -3 -3
-7 -7 -7 -7 -8 -8 -9 -9 -9 -9 -10 -10 -10 -10 -10 -10 -10 -10 -10 -10 -9 -9 -9 -9 -9 -8 -8 -8 -8 -8 -8 -7 -7 -7 -7 -6 -6 -6 -6 -5 -5 -4 -4 -4
-8 -8 -8 -8 -8 -9 -9 -9 -9 -10 -10 -10 -10 -10 -10 -10 -10 -10 -10 -10 -10 -10 -9 -9 -9 -9 -8 -8 -8 -8 -8 -8 -8 -8 -7 -7 -7 -7 -7 -6 -5 -5 -5 -5
-8 -8 -9 -9 -9 -9 -10 -10 -10 -10 -10 -10 -10 -11 -11 -11 -10 -10 -10 -10 -10 -10 -10 -9 -9 -9 -9 -9 -9 -8 -8 -8 -8 -8 -8 -8 -8 -7 -7 -7 -6 -6 -6 -5
-9 -9 -9 -9 -10 -10 -10 -10 -11 -11 -11 -11 -11 -11 -11 -11 -11 -11 -10 -10 -10 -10 -10 -10 -9 -9 -9 -9 -9 -9 -9 -9 -9 -9 -8 -8 -8 -8 -8 -7 -7 -7 -7 -6
-9 -10 -10 -10 -10 -10 -11 -11 -11 -11 -11 -11 -11 -11 -11 -11 -11 -11 -11 -11 -11 -11 -10 -10 -10 -10 -10 -9 -9 -9 -9 -9 -9 -9 -9 -9 -9 -9 -8 -8 -8 -8 -7 -7
-9 -10 -10 -10 -11 -11 -11 -11 -11 -11 -11 -11 -11 -11 -11 -11 -11 -11 -11 -11 -11 -11 -10 -10 -10 -10 -10 -10 -10 -10 -10 -9 -9 -9 -9 -9 -9 -9 -9 -8 -8 -8 -8 -7
-10 -10 -10 -11 -11 -11 -11 -11 -11 -11 -11 -12 -12 -12 -12 -12 -12 -12 -11 -11 -11 -11 -11 -11 -11 -11 -10 -10 -10 -10 -10 -10 -10 -10 -10 -9 -9 -9 -9 -9 -9 -9 -8 -8
-10 -10 -11 -11 -11 -11 -11 -11 -11 -11 -12 -12 -12 -12 -12 -12 -12 -12 -12 -12 -12 -12 -12 -11 -11 -11 -11 -10 -11 -10 -10 -10 -10 -10 -10 -10 -10 -10 -10 -10 -9 -9 -9 -9
-11 -11 -11 -11 -11 -11 -11 -12 -12 -12 -12 -12 -12 -12 -12 -12 -12 -12 -12 -12 -12 -12 -12 -12 -11 -11 -11 -11 -11 -11 -11 -11 -11 -10 -10 -10 -10 -10 -10 -10 -10 -9 -9 -9
-11 -11 -11 -12 -12 -12 -12 -12 -12 -12 -12 -12 -12 -12 -12 -12 -12 -12 -12 -12 -12 -12 -12 -12 -12 -12 -12 -12 -11 -11 -11 -11 -11 -11 -11 -11 -10 -10 -10 -10 -10 -10 -10 -9
-11 -12 -12 -12 -12 -12 -12 -12 -12 -12 -12 -12 -13 -13 -13 -13 -13 -13 -13 -12 -13 -13 -12 -12 -12 -12 -12 -12 -12 -12 -12 -11 -11 -11 -11 -11 -11 -11 -10 -10 -10 -10 -10 -10
-12 -12 -12 -12 -12 -12 -12 -12 -13 -13 -13 -13 -13 -13 -13 -13 -13 -13 -13 -13 -13 -13 -13 -12 -12 -12 -12 -12 -12 -12 -12 -12 -12 -11 -11 -11 -11 -11 -11 -11 -11 -10 -10 -10
-12 -12 -12 -12 -13 -13 -13 -13 -13 -13 -13 -13 -13 -13 -13 -13 -13 -13 -13 -13 -13 -13 -13 -12 -12 -12 -12 -12 -12 -12 -12 -12 -12 -12 -12 -12 -11 -11 -11 -11 -11 -11 -11 -11
-12 -12 -13 -13 -13 -13 -13 -13 -13 -13 -13 -13 -13 -13 -13 -13 -13 -13 -13 -13 -13 -13 -13 -13 -13 -13 -13 -13 -12 -12 -12 -12 -12 -12 -12 -12 -12 -12 -12 -11 -11 -11 -11 -11
-13 -13 -13 -13 -13 -13 -14 -14 -14 -14 -14 -14 -14 -13 -13 -13 -13 -13 -13 -13 -13 -13 -13 -13 -13 -13 -13 -13 -13 -13 -13 -12 -12 -12 -12 -12 -12 -12 -12 -12 -12 -12 -11 -11
Wind_Speed
4 5 4 5 6 5 3 2 3 4 5 7 8 8 8 9 10 11 11 11 11 10 9 10 9 9 8 8 7 7 6 5 5 5 5 4 2 1 1 1 1 2 2 3
5 4 3 5 5 5 4 4 4 5 5 6 7 6 8 9 10 10 11 12 11 11 11 10 10 9 9 8 8 7 6 5 5 5 4 4 3 1 1 1 1 2 2 3
4 4 5 3 3 2 2 3 3 4 4 7 8 8 8 8 9 10 11 12 12 10 10 10 10 9 8 8 8 7 6 6 5 5 4 4 3 2 1 1 1 1 2 3
3 4 3 1 2 3 2 2 4 4 6 7 8 8 6 6 9 10 12 12 11 10 10 10 9 8 8 7 7 7 6 6 6 5 5 4 2 1 1 1 1 2 2 3
2 3 3 1 2 3 3 3 4 5 7 9 8 7 4 8 10 9 9 10 10 9 9 9 9 8 8 7 7 6 7 7 7 6 5 5 3 2 1 1 1 2 2 2
2 3 3 1 3 4 2 2 4 6 8 9 9 6 6 9 10 10 10 9 9 9 9 9 9 8 7 7 7 8 8 8 7 6 5 5 4 2 2 2 2 2 1 2
3 3 2 1 4 3 1 4 6 6 7 7 5 5 8 10 10 9 10 10 10 9 9 9 9 8 8 8 8 9 8 8 7 6 5 5 3 2 1 2 1 1 1 1
2 3 3 2 2 1 3 4 4 5 5 6 7 8 9 9 10 10 10 10 10 9 9 9 9 8 9 9 9 9 8 7 7 6 5 4 2 2 1 1 2 1 1 1
3 3 2 1 1 2 1 3 4 5 6 7 8 8 9 9 9 9 9 9 9 9 9 9 9 8 9 10 9 9 8 8 7 6 5 4 2 2 1 1 2 2 1 1
3 4 3 2 2 2 3 4 5 5 6 6 7 8 9 9 9 9 9 9 9 9 9 10 10 9 9 10 9 9 9 8 7 6 5 3 2 2 1 1 1 1 2 1
5 4 4 3 3 4 4 4 5 5 6 6 7 8 8 8 8 8 9 9 8 8 9 10 10 9 10 9 9 8 8 7 7 6 4 3 3 2 2 2 2 2 2 2
4 3 3 5 4 4 4 5 5 6 7 6 6 7 8 8 7 7 8 8 8 9 9 9 9 9 9 9 8 8 8 7 6 5 4 3 3 3 4 3 4 4 3 3
4 4 4 5 4 3 4 5 5 5 6 7 6 6 7 7 7 7 8 8 8 9 9 9 8 9 9 8 8 7 7 7 5 5 4 4 4 3 3 4 5 5 4 3
3 4 5 4 5 5 5 5 5 5 5 5 5 6 6 7 7 7 8 8 8 8 8 8 8 8 8 8 8 8 7 7 6 4 4 4 4 3 3 3 3 3 4 4
3 3 4 5 5 4 4 4 5 5 5 5 5 6 6 7 8 8 7 8 8 8 8 8 8 8 8 8 8 8 6 5 4 4 4 4 4 4 3 3 3 3 3 4
5 4 4 5 5 5 5 5 5 6 6 6 6 6 7 7 7 7 7 7 7 8 8 8 8 8 8 8 8 6 6 8 7 5 4 4 4 3 3 2 2 2 3 3
4 4 5 5 6 6 5 5 5 6 6 6 7 7 7 7 7 7 7 7 7 7 7 8 8 8 8 7 7 5 5 6 8 6 4 4 4 3 3 3 2 2 3 3
3 4 5 5 5 6 6 6 5 6 6 6 6 6 6 6 7 7 7 7 7 7 7 7 8 8 7 7 6 5 5 4 4 4 4 4 4 3 3 3 3 3 3 3
3 4 5 5 5 5 5 6 6 5 5 5 6 6 6 6 7 7 7 7 7 8 8 8 11 8 7 8 8 4 4 5 5 4 4 5 5 3 3 3 3 3 3 3
4 4 4 5 5 4 5 6 5 5 5 5 5 6 6 6 6 6 6 6 5 5 7 8 8 6 6 7 8 4 4 4 4 4 4 3 3 3 3 3 3 3 3 2
4 4 5 5 5 5 5 5 5 6 5 5 5 6 7 7 6 5 5 6 6 6 7 9 6 5 5 7 7 4 4 4 4 4 4 4 3 3 3 3 3 3 3 3
3 4 4 5 5 6 5 5 5 5 5 5 6 6 6 7 6 6 5 5 6 9 7 5 5 7 8 8 4 4 4 4 4 4 4 3 3 3 3 3 3 3 3 3
3 4 4 5 5 6 6 5 5 5 5 6 6 6 6 6 5 5 6 5 5 9 7 5 8 11 11 6 4 4 4 4 4 4 4 4 3 3 3 3 3 3 3 3
4 4 4 4 4 5 6 6 5 5 5 6 6 5 5 5 5 4 4 8 10 10 6 8 11 11 10 4 4 4 4 4 4 4 4 4 4 3 3 3 4 3 3 3
4 4 4 4 4 5 5 6 5 5 5 5 5 5 4 3 4 5 5 6 9 9 6 8 11 11 7 4 4 4 4 4 4 4 3 4 4 4 4 4 3 3 3 3
4 4 4 4 4 4 4 4 4 5 5 5 5 4 4 4 4 5 4 5 7 8 6 5 6 7 5 4 4 5 4 5 6 5 4 4 5 4 4 4 4 4 4 4
4 4 3 3 3 3 3 4 5 5 5 5 6 5 5 5 5 5 5 5 5 5 5 5 5 5 5 5 5 5 5 5 5 5 5 4 4 4 5 5 5 4 5 5
Wind_Direction
304 311 321 328 336 343 345 319 298 317 322 341 352 349 351 354 353 354 358 359 358 353 351 349 348 350 349 347 345 345 340 335 331 329 331 326 317 302 279 252 226 200 196 198
290 282 306 317 342 339 328 329 317 320 318 350 346 351 355 354 353 355 353 351 350 350 350 347 345 344 343 341 339 338 333 328 327 328 329 324 315 313 284 259 237 206 192 189
291 312 310 310 3 11 7 355 337 320 323 339 341 345 348 347 354 353 348 345 344 345 344 342 340 337 336 334 334 336 333 329 326 324 321 313 308 320 288 245 256 237 208 193
294 326 285 190 63 27 339 358 4 343 340 339 332 326 333 1 1 351 345 342 341 340 339 337 336 338 336 334 336 337 335 333 329 324 318 311 301 293 298 289 233 245 232 206
304 295 269 99 26 14 327 311 10 345 335 335 337 326 340 6 357 344 338 336 336 336 335 335 338 340 339 340 342 342 339 333 325 321 314 307 294 284 293 288 270 251 244 214
297 299 293 304 350 338 310 280 11 351 334 335 342 332 322 340 339 336 337 338 338 338 340 342 342 343 344 343 344 342 334 326 320 315 306 299 284 286 294 282 274 269 267 225
274 266 270 321 326 354 353 286 333 338 333 335 327 302 309 323 330 333 336 338 340 341 343 343 343 345 346 345 341 333 327 326 325 319 310 299 282 282 274 277 270 262 258 238
272 261 265 359 30 54 256 307 327 329 329 323 311 312 319 324 328 333 336 338 340 340 339 340 345 347 345 340 333 330 329 329 331 328 318 311 286 273 259 247 248 245 242 227
224 233 258 192 226 261 319 315 316 318 316 314 311 313 319 322 325 328 331 333 335 335 334 340 345 347 340 333 334 334 334 334 333 335 328 315 302 280 255 234 232 245 238 223
273 266 273 264 285 323 321 306 310 314 315 316 309 311 315 318 321 325 328 330 332 334 335 337 340 342 336 332 335 337 335 334 335 337 335 336 334 324 304 273 249 254 258 255
256 277 301 278 296 308 311 311 310 315 314 311 308 308 310 313 316 319 322 326 330 330 329 329 333 335 336 336 337 336 334 334 335 336 336 341 349 346 327 307 274 263 257 249
254 282 283 289 305 308 307 304 303 306 307 307 304 304 308 308 310 312 315 320 324 326 326 325 328 331 334 337 337 335 334 335 337 341 342 344 348 358 3 342 339 323 303 276
259 294 287 289 310 320 302 300 300 296 294 300 302 300 303 305 307 310 314 319 320 320 319 320 325 328 332 335 335 334 331 331 335 338 340 341 341 338 337 350 359 358 355 360
279 297 288 295 302 305 302 304 304 302 299 299 302 307 306 305 307 310 312 313 314 316 318 321 324 325 329 333 335 334 332 334 337 337 339 338 336 334 330 331 341 353 359 3
295 288 278 293 297 305 309 311 310 308 310 311 313 313 313 311 308 307 308 314 318 320 322 324 324 324 331 335 335 335 336 338 337 339 339 336 334 333 333 333 335 341 349 352
306 297 290 297 303 308 310 308 304 304 308 309 312 313 311 308 305 307 313 321 323 322 323 325 325 328 334 337 337 337 335 334 338 338 337 334 331 330 330 331 337 346 344 341
307 305 309 309 305 304 303 300 296 299 303 306 309 312 314 315 315 316 320 322 319 315 320 325 326 330 332 333 332 331 331 332 335 336 335 332 329 332 334 335 335 333 333 339
276 285 295 295 298 302 303 304 303 304 303 304 310 312 312 311 311 312 316 319 320 320 325 328 327 329 328 329 330 328 331 332 335 334 334 337 335 337 340 339 337 332 331 338
296 298 302 304 304 304 304 306 306 304 304 307 308 305 304 304 306 308 313 318 321 320 326 328 331 335 332 331 334 329 331 332 333 335 336 334 336 344 348 343 337 334 336 342
303 307 309 311 312 305 300 301 303 303 303 304 304 304 306 308 310 311 310 308 306 305 315 324 328 330 329 329 334 330 330 330 330 331 333 335 337 338 338 336 336 334 336 340
298 305 308 309 308 305 300 300 301 299 302 302 299 298 300 304 307 308 307 308 311 316 322 327 332 328 327 329 331 331 329 328 329 331 332 331 330 331 333 332 329 329 333 333
290 295 299 303 305 306 306 303 297 297 302 303 300 300 304 307 310 308 300 296 310 324 330 326 324 325 329 331 333 331 329 328 327 326 325 323 322 321 322 322 321 321 322 319
290 293 299 302 302 302 305 302 298 296 296 298 301 301 299 299 302 306 310 315 320 325 329 322 323 326 329 335 333 328 325 325 323 323 321 317 312 311 311 311 309 309 308 307
296 299 299 302 305 303 303 304 303 298 291 289 291 292 294 300 301 295 297 314 324 324 323 321 326 329 334 340 330 325 322 319 316 316 315 314 312 309 305 302 300 299 297 296
293 289 290 296 299 297 299 306 307 303 302 302 302 305 301 293 295 304 308 312 319 324 323 324 328 331 336 327 323 320 318 312 311 313 314 316 314 310 305 301 299 298 296 292
282 283 282 280 281 291 301 306 306 309 312 312 313 315 312 308 305 306 308 311 314 320 322 319 322 324 325 320 317 315 312 314 316 317 313 310 308 306 304 304 302 297 294 292
289 288 292 296 300 304 306 305 305 307 309 309 309 311 313 314 314 315 316 315 314 314 313 316 318 317 315 314 313 312 311 311 309 306 306 304 302 300 301 300 299 297 297 296
Height
1516 1513 1512 1512 1511 1510 1512 1512 1513 1510 1509 1509 1508 1506 1503 1501 1497 1493 1489 1486 1483 1481 1478 1475 1473 1471 1469 1468 1467 1466 1466 1465 1466 1467 1468 1469 1470 1472 1474 1476 1477 1479 1482 1484
1517 1511 1511 1511 1512 1512 1511 1512 1512 1511 1511 1510 1508 1506 1503 1501 1497 1493 1490 1487 1484 1481 1478 1475 1472 1470 1468 1466 1465 1464 1464 1463 1463 1464 1465 1466 1467 1469 1470 1472 1473 1475 1477 1480
1517 1512 1511 1515 1517 1517 1517 1517 1516 1515 1515 1511 1508 1506 1504 1501 1498 1495 1491 1488 1484 1481 1478 1475 1472 1470 1467 1465 1464 1462 1461 1461 1461 1461 1461 1462 1464 1465 1466 1468 1469 1471 1473 1475
1518 1517 1524 1523 1518 1517 1518 1517 1517 1516 1514 1512 1509 1506 1503 1501 1498 1495 1491 1487 1484 1480 1477 1474 1471 1469 1466 1464 1462 1460 1459 1458 1458 1458 1458 1459 1460 1461 1463 1464 1466 1467 1469 1471
1521 1522 1518 1520 1519 1519 1520 1518 1517 1516 1513 1511 1508 1503 1501 1500 1498 1495 1492 1488 1484 1480 1477 1473 1470 1467 1465 1462 1460 1458 1456 1455 1455 1455 1455 1455 1456 1457 1459 1460 1462 1463 1465 1467
1524 1525 1524 1524 1521 1518 1519 1519 1517 1515 1513 1511 1508 1506 1502 1500 1497 1494 1490 1487 1483 1479 1476 1472 1469 1466 1463 1460 1458 1456 1454 1453 1452 1452 1452 1452 1453 1454 1456 1457 1458 1459 1461 1463
1528 1527 1523 1524 1520 1518 1524 1522 1517 1515 1513 1511 1510 1509 1505 1500 1496 1493 1489 1485 1482 1478 1475 1471 1468 1465 1462 1459 1456 1454 1452 1450 1449 1449 1449 1449 1450 1451 1452 1454 1455 1456 1457 1459
1528 1529 1528 1522 1520 1523 1522 1518 1516 1514 1513 1511 1508 1505 1502 1499 1495 1491 1487 1484 1480 1477 1473 1470 1467 1464 1460 1458 1455 1453 1450 1448 1446 1446 1446 1446 1447 1448 1449 1450 1451 1452 1453 1455
1528 1528 1522 1520 1519 1519 1518 1516 1514 1513 1511 1509 1506 1503 1499 1496 1493 1489 1486 1483 1480 1476 1472 1469 1466 1463 1459 1457 1454 1451 1448 1445 1444 1443 1443 1443 1444 1444 1446 1447 1448 1449 1450 1451
1524 1520 1519 1518 1517 1517 1516 1514 1512 1511 1508 1506 1503 1500 1497 1494 1490 1487 1484 1481 1478 1475 1471 1468 1465 1462 1459 1456 1453 1449 1446 1444 1442 1441 1441 1441 1441 1442 1443 1443 1444 1446 1447 1448
1522 1519 1517 1515 1515 1514 1513 1511 1509 1507 1505 1503 1500 1497 1495 1492 1489 1486 1483 1480 1477 1473 1470 1467 1464 1461 1458 1454 1452 1448 1445 1443 1441 1439 1439 1438 1438 1439 1440 1441 1442 1443 1444 1445
1520 1517 1516 1514 1513 1511 1510 1508 1506 1504 1502 1500 1498 1495 1492 1489 1487 1484 1481 1478 1475 1472 1469 1466 1463 1460 1457 1454 1451 1448 1444 1442 1440 1438 1437 1437 1437 1437 1438 1439 1439 1440 1441 1442
1516 1514 1513 1512 1510 1509 1507 1505 1503 1501 1499 1496 1494 1492 1489 1487 1484 1482 1479 1476 1473 1470 1467 1464 1461 1458 1455 1452 1450 1447 1444 1441 1439 1437 1436 1436 1435 1435 1435 1436 1436 1437 1438 1439
1513 1512 1510 1509 1508 1506 1504 1502 1500 1498 1496 1494 1492 1489 1487 1484 1481 1479 1476 1474 1471 1469 1466 1462 1459 1456 1454 1451 1448 1445 1443 1440 1439 1437 1436 1435 1435 1434 1434 1434 1434 1434 1436 1437
1510 1509 1508 1506 1505 1503 1501 1499 1497 1495 1493 1491 1489 1486 1484 1481 1479 1476 1474 1472 1469 1466 1463 1460 1457 1455 1452 1450 1447 1444 1442 1440 1438 1437 1436 1435 1434 1434 1433 1433 1433 1433 1434 1435
1507 1506 1505 1503 1501 1500 1498 1496 1494 1492 1490 1488 1486 1484 1481 1479 1476 1474 1471 1469 1466 1463 1460 1458 1455 1453 1451 1448 1446 1443 1441 1439 1438 1436 1435 1434 1433 1433 1432 1432 1432 1432 1433 1433
1505 1503 1502 1500 1499 1497 1495 1493 1491 1489 1488 1485 1483 1481 1479 1476 1474 1471 1469 1467 1464 1461 1459 1456 1454 1452 1449 1447 1445 1443 1441 1439 1437 1436 1434 1434 1433 1432 1432 1431 1431 1431 1432 1432
1503 1501 1500 1498 1496 1494 1492 1490 1489 1487 1485 1483 1481 1478 1476 1474 1471 1469 1467 1464 1462 1459 1457 1454 1452 1450 1448 1446 1444 1442 1440 1438 1437 1435 1434 1433 1432 1432 1431 1431 1431 1430 1431 1431
1499 1498 1497 1495 1494 1492 1490 1488 1486 1484 1482 1480 1478 1476 1473 1471 1469 1467 1464 1462 1459 1456 1454 1453 1450 1448 1446 1444 1442 1441 1439 1437 1436 1435 1434 1433 1432 1431 1431 1430 1430 1430 1430 1430
1497 1496 1494 1492 1491 1489 1487 1485 1483 1481 1479 1477 1475 1473 1471 1469 1467 1464 1462 1460 1458 1455 1453 1451 1448 1446 1444 1442 1441 1439 1438 1436 1435 1434 1433 1432 1431 1430 1430 1429 1429 1429 1429 1429
1495 1493 1491 1490 1488 1486 1484 1482 1480 1478 1476 1475 1472 1470 1468 1466 1465 1462 1460 1458 1456 1454 1451 1449 1447 1445 1443 1441 1440 1438 1437 1435 1434 1433 1432 1431 1430 1429 1429 1428 1428 1427 1427 1427
1492 1490 1489 1487 1485 1483 1482 1480 1478 1475 1474 1472 1470 1468 1466 1464 1462 1460 1458 1456 1454 1452 1450 1448 1446 1444 1442 1440 1438 1437 1435 1434 1433 1431 1430 1430 1429 1428 1427 1427 1426 1426 1426 1426
1489 1488 1486 1484 1483 1481 1479 1477 1475 1473 1471 1469 1467 1465 1463 1461 1460 1458 1456 1454 1452 1450 1448 1446 1444 1442 1441 1439 1437 1435 1434 1433 1431 1430 1429 1428 1427 1427 1426 1425 1425 1424 1424 1423
1487 1485 1484 1482 1480 1478 1476 1474 1472 1470 1468 1466 1465 1463 1461 1459 1457 1456 1454 1452 1450 1448 1446 1444 1442 1441 1439 1437 1435 1434 1432 1431 1430 1428 1427 1426 1426 1425 1424 1423 1422 1422 1421 1421
1484 1482 1481 1479 1477 1475 1473 1471 1469 1467 1465 1464 1462 1460 1459 1457 1455 1453 1451 1449 1448 1446 1444 1442 1441 1439 1437 1435 1434 1432 1431 1429 1428 1427 1425 1424 1423 1422 1422 1421 1420 1419 1419 1418
1481 1479 1477 1476 1474 1472 1470 1468 1466 1465 1463 1461 1459 1458 1456 1454 1453 1451 1449 1447 1445 1444 1442 1440 1439 1437 1435 1434 1432 1431 1429 1428 1426 1425 1424 1423 1421 1420 1419 1418 1417 1416 1416 1415
1478 1476 1474 1473 1471 1469 1468 1466 1464 1462 1460 1458 1457 1455 1454 1452 1450 1448 1447 1445 1443 1442 1440 1438 1437 1435 1434 1432 1430 1429 1427 1426 1424 1423 1422 1420 1419 1418 1417 1416 1415 1413 1412 1412